Fairmont, MN

9:23 PM CDT on June 28, 2017 (GMT -0500)
Fairmont Municipal

Weather History for KFRM - May, 2013

Change the Weather History Date:

Friday, May 3, 2013

  Actual Average Record
Temperature  
Mean Temperature 40 °F -  
Max Temperature 46 °F 65 °F 91 °F (1949)
Min Temperature 35 °F 42 °F 24 °F (1967)
Degree Days  
Heating Degree Days 24    
Moisture  
Dew Point 27 °F    
Average Humidity 60    
Maximum Humidity 75    
Minimum Humidity 45    
Precipitation  
Precipitation 0.01 in - - ()
Sea Level Pressure  
Sea Level Pressure 30.24 in    
Wind  
Wind Speed - (North)    
Max Wind Speed -    
Max Gust Speed -    
Visibility 9 miles    
Events      
Averages and records for this station are not official NWS values.
T = Trace of Precipitation, MM = Missing Value Source: NWS Daily Summary

Daily Weather History Graph

Daily Weather History Graph

Search for Another Location

Airport or City:

Trip Planner

Search our weather history database for the weather conditions in past years. The results will help you decide how hot, cold, wet, or windy it might be!

Date:

Astronomy

May. 03, 2013 Rise Set
Actual Time 6:06 AM CDT 8:22 PM CDT
Civil Twilight 5:35 AM CDT 8:54 PM CDT
Nautical Twilight 4:56 AM CDT 9:34 PM CDT
Astronomical Twilight 4:12 AM CDT 10:17 PM CDT
Moon 2:43 AM CDT (5/3) 2:07 PM CDT (5/3)
Length of Visible Light 15h 19m
Length of Day
14h 15m
Last Quarter, 37% of the Moon is Illuminated
May 3
Last Quarter
May 9
New
May 17
First Quarter
May 24
Full
May 31
Last Quarter

Hourly Weather History & Observations

Time (CDT) Temp. Dew Point Humidity Pressure Visibility Wind Dir Wind Speed Gust Speed Precip Events Conditions
12:15 AM 41.0 °F 26.6 °F 57% 30.42 in 10.0 mi North - - N/A   Clear
12:35 AM 39.2 °F 26.6 °F 61% 30.41 in 10.0 mi North - - N/A   Clear
12:55 AM 39.2 °F 24.8 °F 56% 30.41 in 10.0 mi North - - N/A   Clear
1:15 AM 39.2 °F 24.8 °F 56% 30.40 in 10.0 mi North - - N/A   Clear
1:35 AM 39.2 °F 24.8 °F 56% 30.40 in 10.0 mi North - - N/A   Clear
1:55 AM 39.2 °F 24.8 °F 56% 30.39 in 10.0 mi North - - N/A   Clear
2:15 AM 37.4 °F 24.8 °F 60% 30.38 in 10.0 mi North - - N/A   Clear
2:35 AM 37.4 °F 24.8 °F 60% 30.37 in 10.0 mi North - - N/A   Clear
3:15 AM 37.4 °F 24.8 °F 60% 30.36 in 10.0 mi North - - N/A   Clear
3:35 AM 37.4 °F 24.8 °F 60% 30.34 in 10.0 mi North - - N/A   Clear
3:55 AM 37.4 °F 23.0 °F 56% 30.34 in 10.0 mi North - - N/A   Clear
4:15 AM 37.4 °F 23.0 °F 56% 30.34 in 10.0 mi North - - N/A   Clear
4:35 AM 37.4 °F 21.2 °F 52% 30.34 in 10.0 mi North - - N/A   Clear
4:55 AM 37.4 °F 21.2 °F 52% 30.33 in 10.0 mi North - - N/A   Clear
5:15 AM 35.6 °F 21.2 °F 56% 30.32 in 10.0 mi North - - N/A   Clear
5:35 AM 35.6 °F 21.2 °F 56% 30.31 in 10.0 mi North - - N/A   Clear
5:55 AM 35.6 °F 21.2 °F 56% 30.31 in 10.0 mi North - - N/A   Clear
6:15 AM 35.6 °F 21.2 °F 56% 30.31 in 10.0 mi North - - N/A   Clear
6:35 AM 35.6 °F 21.2 °F 56% 30.32 in 10.0 mi North - - N/A   Clear
6:55 AM 35.6 °F 21.2 °F 56% 30.32 in 10.0 mi North - - N/A   Clear
7:15 AM 35.6 °F 21.2 °F 56% 30.31 in 10.0 mi North - - N/A   Partly Cloudy
7:35 AM 35.6 °F 21.2 °F 56% 30.30 in 10.0 mi North - - N/A   Partly Cloudy
7:55 AM 37.4 °F 19.4 °F 48% 30.30 in 10.0 mi North - - N/A   Partly Cloudy
8:15 AM 37.4 °F 21.2 °F 52% 30.30 in 10.0 mi North - - N/A   Mostly Cloudy
8:35 AM 37.4 °F 21.2 °F 52% 30.28 in 10.0 mi North - - N/A   Overcast
8:55 AM 37.4 °F 19.4 °F 48% 30.29 in 10.0 mi North - - N/A   Overcast
9:15 AM 39.2 °F 19.4 °F 45% 30.29 in 10.0 mi North - - N/A   Overcast
9:35 AM 39.2 °F 21.2 °F 49% 30.29 in 10.0 mi North - - N/A   Overcast
9:55 AM 39.2 °F 21.2 °F 49% 30.28 in 10.0 mi North - - N/A   Overcast
10:15 AM 39.2 °F 23.0 °F 52% 30.27 in 10.0 mi North - - N/A   Overcast
10:35 AM 41.0 °F 24.8 °F 53% 30.26 in 10.0 mi North - - N/A   Overcast
10:55 AM 42.8 °F 26.6 °F 53% 30.25 in 10.0 mi North - - N/A   Overcast
11:15 AM 42.8 °F 26.6 °F 53% 30.23 in 10.0 mi North - - N/A   Overcast
11:35 AM 44.6 °F 28.4 °F 53% 30.22 in 10.0 mi North - - N/A   Mostly Cloudy
11:55 AM 44.6 °F 26.6 °F 49% 30.21 in 10.0 mi North - - N/A   Mostly Cloudy
12:15 PM - - N/A% - 10.0 mi North - - N/A   Overcast
12:35 PM - - N/A% 30.20 in 10.0 mi North - - N/A   Overcast
12:55 PM - - N/A% - 10.0 mi North - - N/A   Overcast
1:15 PM 46.4 °F 28.4 °F 50% - 10.0 mi North - - N/A   Overcast
1:35 PM 44.6 °F 28.4 °F 53% 30.18 in 10.0 mi North - - N/A   Overcast
1:55 PM 46.4 °F 28.4 °F 50% 30.17 in 10.0 mi North - - N/A   Overcast
2:15 PM 44.6 °F 30.2 °F 57% 30.17 in 10.0 mi North - - N/A   Overcast
2:35 PM 44.6 °F 30.2 °F 57% 30.18 in 10.0 mi North - - N/A   Overcast
2:55 PM 44.6 °F 30.2 °F 57% 30.17 in 10.0 mi North - - N/A   Overcast
3:15 PM 42.8 °F 30.2 °F 61% 30.17 in 10.0 mi North - - N/A   Overcast
3:35 PM 42.8 °F 32.0 °F 66% 30.17 in 5.0 mi North - - N/A   Overcast
3:55 PM 42.8 °F 32.0 °F 66% 30.16 in 3.0 mi North - - N/A   Overcast
4:15 PM 42.8 °F 32.0 °F 66% 30.16 in 3.0 mi North - - N/A   Overcast
4:35 PM 42.8 °F 32.0 °F 66% 30.16 in 5.0 mi North - - N/A   Overcast
4:55 PM 41.0 °F 32.0 °F 70% 30.16 in 10.0 mi North - - N/A   Overcast
5:15 PM 41.0 °F 32.0 °F 70% 30.15 in 5.0 mi North - - N/A   Overcast
5:35 PM 41.0 °F 32.0 °F 70% 30.15 in 4.0 mi North - - N/A   Overcast
5:55 PM 41.0 °F 32.0 °F 70% 30.16 in 5.0 mi North - - N/A   Overcast
6:15 PM 41.0 °F 32.0 °F 70% 30.15 in 7.0 mi North - - N/A   Overcast
6:35 PM 41.0 °F 32.0 °F 70% 30.15 in 7.0 mi North - - 0.01 in   Overcast
6:55 PM 41.0 °F 32.0 °F 70% 30.14 in 8.0 mi North - - 0.01 in   Overcast
7:15 PM 41.0 °F 32.0 °F 70% 30.13 in 10.0 mi North - - N/A   Mostly Cloudy
7:35 PM 41.0 °F 30.2 °F 65% 30.13 in 7.0 mi North - - N/A   Overcast
7:55 PM 39.2 °F 30.2 °F 70% 30.15 in 8.0 mi North - - N/A   Overcast
8:15 PM 39.2 °F 30.2 °F 70% 30.16 in 10.0 mi North - - N/A   Overcast
8:35 PM 39.2 °F 30.2 °F 70% 30.16 in 9.0 mi North - - N/A   Overcast
8:55 PM 39.2 °F 30.2 °F 70% 30.14 in 5.0 mi North - - N/A   Overcast
9:15 PM 39.2 °F 30.2 °F 70% 30.14 in 7.0 mi North - - N/A   Mostly Cloudy
9:35 PM 39.2 °F 30.2 °F 70% 30.16 in 10.0 mi North - - N/A   Overcast
9:55 PM 39.2 °F 30.2 °F 70% 30.17 in 10.0 mi North - - N/A   Overcast
10:15 PM 39.2 °F 30.2 °F 70% 30.15 in 10.0 mi North - - N/A   Overcast
10:35 PM 39.2 °F 30.2 °F 70% 30.14 in 8.0 mi North - - N/A   Overcast
10:55 PM 39.2 °F 30.2 °F 70% 30.15 in 10.0 mi North - - N/A   Overcast
11:15 PM 39.2 °F 30.2 °F 70% 30.13 in 6.0 mi North - - N/A   Overcast
11:35 PM 37.4 °F 30.2 °F 75% 30.12 in 5.0 mi North - - N/A   Overcast
11:55 PM 37.4 °F 30.2 °F 75% 30.12 in 3.0 mi North - - N/A   Overcast